RH
74 97 97 100 99 100 100 100 100 92 100 97 100 96 84 68 60 58 51 52 47 51 48 42 57 63 66 76 76 92 100 86 68 53 46 44 43 43 42 38 40 41 43
84 98 97 95 84 99 82 100 100 100 100 90 84 95 100 94 78 68 58 59 64 58 52 49 51 62 85 85 88 80 93 98 92 65 54 52 52 51 48 43 45 51 53
100 96 82 100 81 93 100 64 73 95 100 100 92 61 62 100 100 98 82 69 61 68 69 60 53 56 90 100 96 100 96 79 90 93 68 60 61 65 64 54 58 63 62
99 87 83 98 100 100 100 93 81 98 100 100 96 82 57 57 98 100 100 98 85 72 68 76 72 60 69 96 100 100 100 98 97 100 100 100 89 85 78 69 66 71 76
100 100 83 89 100 100 100 100 100 100 100 100 100 90 98 100 75 100 100 100 100 100 88 73 86 74 69 70 84 100 100 100 100 100 100 100 94 94 95 91 86 80 81
44 100 80 66 100 100 100 100 100 100 100 100 100 98 100 100 100 100 100 100 100 100 100 94 88 88 80 71 56 68 96 100 100 100 100 100 100 100 100 100 100 100 100
25 80 100 85 80 100 100 100 100 100 100 100 100 100 100 100 100 100 100 100 100 100 100 100 100 100 92 78 67 65 74 96 94 90 100 100 100 100 100 100 100 100 100
36 26 79 100 86 100 100 100 100 100 100 100 100 100 100 100 100 100 100 100 100 100 100 100 100 100 97 85 76 73 73 76 99 100 100 100 100 100 100 100 100 100 100
39 37 27 66 100 100 98 100 100 100 100 100 100 97 100 100 100 99 100 99 98 100 100 100 100 96 100 100 95 99 92 78 83 75 81 95 100 100 100 100 100 100 100
34 40 36 28 63 100 100 95 100 100 100 100 78 100 93 92 100 100 85 84 87 100 100 100 100 99 95 92 91 90 99 98 97 91 87 83 90 90 95 98 100 98 96
33 40 40 34 27 57 95 100 100 100 100 100 100 100 96 66 79 94 85 89 66 92 100 100 100 100 100 99 97 94 86 84 91 85 82 88 96 91 88 80 79 78 77
49 36 44 40 30 27 43 83 100 100 100 100 100 100 100 100 93 89 95 70 58 66 92 100 100 100 99 100 94 100 100 100 100 100 100 96 92 87 95 92 85 84 85
57 60 40 47 40 29 33 42 59 78 99 100 100 100 100 100 100 99 87 68 52 76 82 84 90 90 79 71 86 94 100 100 99 100 100 100 100 100 98 96 88 79 79
46 69 56 42 57 40 31 37 44 46 63 77 92 100 100 100 100 100 98 74 81 84 92 93 74 79 97 94 84 88 99 100 100 100 100 100 89 84 95 96 94 93 95
58 61 73 50 42 56 39 35 38 42 54 53 52 80 99 100 100 100 100 95 74 59 100 100 100 96 82 94 100 100 100 100 92 94 100 99 100 97 100 98 100 100 99
37 60 73 66 50 41 56 32 37 38 49 48 44 39 43 78 100 100 100 100 100 73 91 99 99 100 85 74 84 82 99 100 100 100 96 92 94 99 94 91 94 92 78
28 40 55 64 67 57 45 41 39 39 40 45 45 47 45 39 55 100 100 100 100 100 98 97 83 77 82 88 87 78 80 86 92 93 86 81 88 87 88 87 82 81 73
23 25 35 48 64 65 50 40 41 51 43 39 43 36 34 38 35 41 65 93 100 100 100 100 93 63 58 80 78 95 100 94 100 100 100 98 99 96 96 84 90 82 73
18 20 24 30 42 56 55 47 48 43 63 51 44 49 40 42 41 34 34 37 49 81 100 100 100 100 92 90 72 67 77 80 81 90 88 94 100 98 96 96 89 81 69
16 18 19 21 25 35 45 43 46 44 50 72 60 49 56 50 53 48 50 41 34 33 52 84 70 79 86 100 100 100 100 100 100 96 89 96 84 79 73 63 63 60 64
12 16 17 18 18 22 30 43 40 43 42 58 80 80 79 63 54 54 48 56 53 40 34 36 36 42 47 66 70 66 83 55 73 100 100 100 100 100 100 100 100 100 99
6 9 15 17 18 18 22 24 33 34 43 42 62 76 92 90 69 65 68 58 61 57 53 47 38 32 38 41 44 44 51 43 43 68 87 100 100 100 100 100 100 100 100
6 6 7 13 16 16 17 19 21 21 33 44 49 72 73 80 93 72 63 79 83 80 78 74 62 48 39 39 40 38 40 42 46 48 50 64 74 80 100 100 100 100 100
5 6 6 6 9 14 14 17 18 19 22 32 47 70 67 68 77 73 86 80 78 78 80 78 69 71 63 52 46 41 38 42 39 38 42 42 45 46 45 50 74 100 100
4 4 6 6 6 6 10 14 17 17 19 22 35 47 80 85 85 86 87 80 94 89 76 79 78 77 69 63 55 48 46 48 43 48 46 41 40 40 42 44 44 43 41
5 4 4 4 6 5 5 8 14 16 18 18 20 44 53 63 84 92 72 82 97 89 82 65 69 73 68 68 62 57 52 58 52 48 55 56 54 44 41 42 39 36 37
Wind_Speed
54 52 48 42 45 51 56 63 63 68 70 57 62 69 68 68 66 64 61 57 56 55 53 50 48 45 46 45 44 45 44 41 42 43 43 43 44 43 43 42 40 40 39
57 50 45 39 39 37 49 58 61 63 67 68 69 60 67 71 70 67 65 63 60 58 58 55 53 50 50 48 48 48 47 43 44 45 44 44 44 44 44 44 42 42 41
66 56 40 33 40 34 54 64 62 61 63 69 72 76 73 64 71 72 71 69 67 63 61 59 58 55 54 53 52 52 51 50 48 49 49 48 48 47 45 46 44 45 44
75 61 61 50 50 38 64 57 59 60 66 69 70 71 70 71 66 67 73 74 72 70 67 63 63 61 57 55 52 52 53 51 50 51 51 53 53 52 51 51 51 50 50
80 73 69 64 40 46 46 62 68 72 66 69 69 68 66 67 70 66 65 66 68 69 71 68 65 64 62 62 58 54 54 54 53 52 54 55 54 53 55 56 56 55 56
83 82 77 79 46 62 50 54 67 71 70 69 70 70 69 71 68 65 64 64 64 66 69 71 67 68 67 65 63 63 61 58 57 54 54 56 55 56 57 56 57 56 56
89 94 87 82 87 73 69 72 71 68 67 69 72 71 73 74 74 70 68 68 67 67 68 69 69 69 68 67 65 64 65 64 62 59 58 57 56 55 55 56 57 57 57
100 94 97 96 90 87 81 73 71 70 73 73 75 75 76 77 72 72 73 72 71 70 71 71 70 70 69 69 68 67 67 67 67 65 64 64 62 62 62 62 63 62 61
106 104 100 104 104 103 92 84 80 70 71 77 74 72 80 80 80 77 75 78 77 75 75 72 73 72 72 70 69 68 69 69 69 69 69 70 68 65 63 62 61 60 62
110 111 109 107 111 113 107 96 94 85 77 76 77 74 78 78 78 80 80 80 78 77 78 77 74 72 70 70 70 73 72 71 71 72 72 70 72 71 71 70 69 68 68
112 115 115 113 113 114 113 107 100 94 90 82 69 81 81 79 79 81 81 81 81 80 80 76 75 75 73 72 71 72 71 72 72 72 75 74 73 73 74 75 74 74 74
119 118 119 119 117 116 114 114 110 104 94 87 90 85 84 82 81 81 82 81 83 84 80 73 73 73 75 73 74 75 75 75 75 75 74 74 74 74 75 75 75 75 74
125 124 123 123 122 121 117 115 115 112 107 100 93 87 85 86 78 82 84 84 80 81 74 72 70 68 71 74 76 75 75 76 76 76 77 77 76 76 77 77 79 78 78
129 130 128 128 125 125 122 119 117 114 114 104 102 96 87 93 89 85 81 82 84 75 73 72 72 75 78 79 80 79 75 74 74 74 75 76 78 78 78 78 79 78 79
133 134 133 131 131 128 127 124 120 117 115 110 105 104 98 92 88 93 88 87 84 80 80 79 81 83 80 81 82 82 81 77 74 73 73 72 74 76 78 77 77 77 78
133 137 138 136 134 133 131 128 124 121 119 118 111 107 103 101 99 94 90 95 97 96 91 92 88 85 82 76 79 80 83 83 81 82 82 81 78 79 80 81 81 82 82
131 137 140 139 138 137 136 133 128 126 124 120 118 113 108 104 105 104 100 97 93 94 97 95 91 87 83 81 82 80 81 86 87 87 87 87 85 85 85 84 84 84 84
127 132 138 140 140 139 137 136 133 130 125 123 119 117 112 108 105 104 104 100 100 98 93 91 91 88 85 83 81 82 87 87 88 88 88 89 89 88 90 86 88 87 87
125 128 131 137 140 141 140 138 137 134 132 126 123 119 115 113 109 103 99 98 101 100 99 93 89 90 90 89 86 85 84 85 84 86 85 87 87 87 87 87 88 88 89
121 126 128 131 135 138 140 139 140 138 134 132 127 121 117 116 113 109 103 100 100 100 102 103 98 96 96 93 90 88 90 86 87 87 88 86 89 87 87 87 87 85 84
120 122 126 129 130 132 136 139 139 140 137 134 131 127 123 121 114 111 109 106 103 102 100 100 97 97 98 97 96 97 96 94 92 92 88 86 83 82 82 82 80 86 87
113 120 123 126 129 130 131 133 136 136 138 136 131 130 127 125 120 113 110 108 109 107 103 103 99 96 98 99 99 97 99 99 97 95 92 89 88 88 89 90 89 87 86
104 112 119 123 125 129 131 130 130 130 133 134 131 131 128 125 121 118 113 109 111 111 108 106 103 99 100 102 102 99 99 98 98 96 96 97 95 95 98 96 94 93 96
93 102 110 116 122 125 125 129 129 127 126 127 130 131 131 126 123 120 117 114 113 111 109 107 106 104 105 106 105 104 99 100 96 96 99 99 99 101 99 97 101 104 107
82 90 98 105 111 116 118 120 125 125 123 122 126 127 131 130 128 125 121 115 114 113 112 110 108 108 109 108 107 105 104 103 100 100 102 100 98 100 101 102 103 105 106
74 80 86 93 99 104 108 115 118 119 120 121 118 124 130 129 130 128 121 117 118 113 115 110 111 111 110 111 108 107 106 109 107 104 106 104 107 105 104 106 108 107 108
Wind_Direction
241 246 244 248 252 257 257 255 254 252 251 249 248 243 245 245 247 248 248 249 251 252 251 250 249 249 249 251 254 255 259 260 262 263 264 267 268 270 271 271 274 276 279
227 239 234 248 248 254 254 258 252 252 252 251 246 247 247 244 246 248 249 251 251 251 251 250 250 250 251 252 254 255 257 259 262 263 265 266 269 271 272 272 274 275 278
222 226 221 261 250 243 253 253 252 249 250 250 247 247 248 249 246 247 248 250 252 251 251 251 251 250 250 252 255 257 256 258 261 263 263 264 266 269 272 272 273 276 277
222 216 210 218 232 230 244 250 251 257 254 249 247 247 248 248 248 248 248 249 250 251 252 252 252 250 247 248 250 253 256 258 261 263 263 263 265 268 270 271 273 276 278
216 214 209 211 225 228 247 250 256 255 251 247 243 243 244 244 245 247 246 245 248 251 251 250 250 251 250 248 247 250 255 258 258 261 264 264 265 268 270 271 272 274 278
220 212 209 211 211 238 231 241 250 243 247 244 241 240 240 241 240 242 244 244 245 245 248 248 249 251 251 252 251 250 251 253 255 260 262 265 266 268 270 273 275 277 280
226 217 213 210 213 213 211 232 233 238 239 239 238 240 240 240 241 241 244 245 243 244 246 248 249 250 251 251 252 252 253 254 255 256 258 261 264 266 268 271 273 275 277
229 224 216 215 214 214 213 217 232 236 236 236 235 237 241 239 235 238 239 243 243 244 245 246 248 249 250 252 253 253 254 255 255 254 256 260 262 264 265 267 270 271 273
228 227 223 215 215 212 216 224 223 227 230 230 235 238 238 234 235 234 236 238 240 243 244 246 248 248 249 249 251 251 252 255 256 257 255 258 260 262 263 265 267 270 272
226 227 226 221 218 217 220 224 225 226 228 235 240 238 236 233 235 238 240 239 238 239 243 246 248 248 249 252 253 253 252 253 254 257 256 257 259 260 263 265 268 270 272
226 225 226 225 223 220 223 223 225 229 231 230 234 238 239 238 237 239 238 243 243 238 241 243 245 250 254 255 255 256 255 256 257 259 259 258 259 261 263 266 268 270 272
228 225 224 226 225 224 223 225 225 226 226 227 228 237 237 239 237 240 240 240 242 241 239 241 243 246 251 253 256 255 257 256 257 258 259 261 263 263 265 266 268 270 271
228 227 224 224 226 225 226 225 226 227 227 228 229 233 233 234 234 238 241 244 242 241 240 239 242 247 251 255 256 255 257 257 258 258 259 260 262 264 266 267 269 270 272
227 227 226 223 224 226 226 227 227 228 228 229 231 229 231 233 234 235 237 241 234 236 240 239 250 256 258 256 256 255 254 255 256 258 260 262 264 266 267 268 270 270 271
226 226 226 225 223 224 226 227 228 229 229 229 230 231 232 228 233 236 236 236 237 238 242 248 254 258 259 258 255 254 253 253 255 256 258 260 263 264 266 267 269 270 270
226 226 226 225 225 224 224 224 227 228 228 229 230 231 233 232 230 232 236 239 241 243 243 249 253 255 257 258 256 255 253 255 257 259 261 263 264 265 266 267 268 269 272
229 226 226 225 225 226 225 224 225 227 228 231 232 231 232 234 234 234 235 238 241 244 247 251 252 254 254 255 257 258 258 257 259 260 263 266 266 267 268 268 271 272 274
229 229 226 225 225 225 226 225 225 226 228 230 231 232 232 233 234 235 238 239 242 246 247 248 252 255 257 255 256 258 259 260 261 263 264 266 267 269 270 271 272 273 274
228 228 228 226 225 225 226 226 226 226 227 229 230 231 233 234 235 234 237 239 242 244 247 248 248 253 255 257 258 259 260 262 265 265 267 268 268 269 270 272 273 275 276
228 227 228 228 227 226 225 227 227 227 226 228 229 230 232 234 236 237 236 238 240 242 244 247 248 251 253 254 256 258 260 259 262 264 267 270 271 274 274 274 276 278 279
229 228 227 227 227 228 227 226 227 228 227 227 229 230 231 234 235 237 239 239 240 242 244 247 248 251 253 255 257 257 259 262 262 262 262 264 264 268 267 268 273 275 277
229 229 228 227 227 227 227 227 227 227 228 228 228 231 231 233 234 235 236 239 242 243 244 246 248 249 252 254 256 258 259 263 265 265 264 262 262 262 262 264 266 265 267
227 228 229 228 227 227 227 227 227 228 228 228 229 231 232 232 234 235 235 237 240 242 244 246 248 249 252 254 255 256 258 260 262 264 265 266 265 263 262 263 263 262 267
225 227 227 228 228 228 226 226 227 227 228 228 229 230 232 233 234 235 235 236 238 241 243 246 248 249 251 252 254 256 258 259 262 263 264 265 266 268 270 268 267 266 265
225 226 227 228 228 228 227 226 227 227 227 227 229 230 232 233 234 235 237 238 239 239 242 244 246 248 251 253 255 257 258 259 260 261 262 264 266 267 268 269 271 271 272
224 225 226 227 228 229 227 226 226 226 225 226 227 229 231 233 235 236 237 238 239 240 242 243 245 247 250 251 253 255 258 259 260 263 264 265 266 268 269 270 272 273 273